www.pogodaiklimat.ru

Погода и климат >> Архив погоды >> Мьянма >> Мейтхила


ПОГОДА в Мейтхиле

  • Прогноз погоды в Мейтхиле
  • Монитор погоды в Мейтхиле

АРХИВ ПОГОДЫ в Мейтхиле

Время (UTC), дата Ветер
(напр.,м/с)
 
Видим.   Явления Облачность Т
(С)
Тd
(С)
f
(%)
Тe
(С)
Тes
(С)
Комфортность P
(гПа)
Po
(гПа)
Тmin
(С)
Tmax
(С)
R
(мм)
R24
(мм)
S
(см)
03 16.08 Ю 1 4000 м слаб. морось {дождь} 10/6 300 м
[Cb cap Ac As]
+26.0 +26.0 100 +39 +41 очень
душно
1007.0 982.0
06 16.08 Ю 1 6000 м слаб. морось 8/6 300 м
[Cb cap Ac und]
+27.0 +27.0 100 +42 +49 опасность
перегрева
1005.7 980.8
09 16.08 Ю 1 8000 м 9/5 300 м
[Cb cap Ac und Ci fib]
+30.0 +26.6 82 +46 +50 опасность
перегрева
1003.0 978.4
12 16.08 Ю 1 6000 м 9/5 300 м
[Cb cap Ac und Cs]
+29.0 +25.9 83 +43 +43 опасность
перегрева
1002.2 977.6 +30.0 3
00 17.08 ЮЗ 1 5000 м 10/6 300 м
[Sc Ac und]
+25.0 +25.0 100 +36 +36 очень
душно
1005.0 980.0 +24.4 1
03 17.08 Ю 2 6000 м 9/5 300 м
[Sc Ac und]
+27.0 +25.6 92 +40 +43 очень
душно
1006.2 981.3
06 17.08 Ю 3 6000 м 9/6 300 м
[Cb cap Ac und]
+30.0 +25.3 76 +44 +47 опасность
перегрева
1004.8 980.2
09 17.08 ЮЗ 3 6000 м 6/4 300 м
[Cb cap Ac und]
+32.0 +24.5 65 +45 +48 опасность
перегрева
1002.3 977.9
12 17.08 ЮЗ 2 6000 м в посл. час морось 6/4 300 м
[Cb cap Ac und]
+28.0 +26.8 93 +44 +44 опасность
перегрева
1003.0 978.3 +32.5 1
00 18.08 ЮЗ 3 5000 м 10/6 300 м
[Sc Ac und]
+25.0 +23.3 90 +33 +34 очень
душно
1007.9 982.8 +23.9
03 18.08 ЮЗ 3 6000 м 9/6 300 м
[Cb cap Ac und]
+27.0 +24.0 84 +37 +40 очень
душно
1010.2 985.2
06 18.08 Ю 2 8000 м 9/6 300 м
[Cb cap Ac und]
+31.0 +25.4 72 +45 +49 опасность
перегрева
1007.9 983.3
09 18.08 Ю 3 8000 м 9/5 300 м
[Cb cap Ac und Ci sp]
+33.0 +25.8 66 +48 +51 опасность
перегрева
1005.1 980.7
12 18.08 ЮЗ 2 6000 м 9/5 300 м
[Cb cap Ac und Ci sp]
+31.0 +25.4 72 +45 +45 опасность
перегрева
1004.7 980.2 +33.0
03 19.08 Ю 3 6000 м 9/6 300 м
[Cb cap Ac und]
+28.0 +23.3 76 +38 +40 очень
душно
1009.1 984.2
06 19.08 Ю 3 8000 м 8/5 300 м
[Cb cap Ac und]
+31.0 +25.4 72 +45 +50 опасность
перегрева
1008.0 983.4
09 19.08 Ю 2 8000 м 8/5 300 м
[Cb cap Ac und]
+33.0 +25.8 66 +48 +51 опасность
перегрева
1004.9 980.5
12 19.08 Ю 2 6000 м 6/5 300 м
[Cb cap Ac und]
+32.0 +26.5 73 +49 +49 опасность
перегрева
1003.7 979.3 +33.0
00 20.08 Ю 1 5000 м 10/6 300 м
[Sc Ac und]
+25.0 +23.3 90 +33 +34 очень
душно
1005.7 980.7 +24.4
03 20.08 ЮЗ 2 6000 м 9/6 300 м
[Sc Ac und]
+28.0 +25.0 84 +40 +43 очень
душно
1007.6 982.8
06 20.08 ЮЗ 3 6000 м 8/5 300 м
[Cb cap Ac und]
+31.0 +25.4 72 +45 +50 опасность
перегрева
1005.0 980.5
09 20.08 ЮЗ 3 8000 м 5/5 300 м
[Cb cap]
+33.0 +25.8 66 +48 +52 опасность
перегрева
1001.7 977.4
12 20.08 ЮЗ 3 6000 м 8/4 300 м
[Cb cap Ac trans Cs]
+32.0 +26.5 73 +49 +49 опасность
перегрева
1001.0 976.6 +33.2
00 21.08 ЮЗ 1 4000 м слаб. морось 10/6 300 м
[Cb cap Ac und]
+25.0 +25.0 100 +36 +36 очень
душно
1003.6 978.6 +24.4 2
03 21.08 ЮЗ 2 6000 м {морось} 10/6 300 м
[Cb cap Ac und]
+25.0 +23.3 90 +33 +35 очень
душно
1005.6 980.6
06 21.08 В 22 8000 м 9/6 300 м
[Cb cap Ac und]
+27.0 +24.0 84 +37 +37 очень
душно
1004.7 979.8
12 21.08 штиль 0 8000 м 9/5 300 м
[Cb cap Ac und Cs]
+29.0 +25.9 83 +43 +43 опасность
перегрева
1001.2 976.6 +31.5
00 22.08 штиль 0 5000 м 10/6 300 м
[Sc Ac und]
+25.0 +25.0 100 +36 +36 очень
душно
1004.0 979.0 +23.9 8
03 22.08 Ю 2 6000 м 9/6 300 м
[Cb cap Ac und]
+27.0 +25.6 92 +40 +42 очень
душно
1006.1 981.2
06 22.08 Ю 2 8000 м 8/5 300 м
[Cb cap Ac und]
+30.0 +25.3 76 +44 +50 опасность
перегрева
1004.0 979.4
09 22.08 Ю 2 8000 м 9/6 300 м
[Cb cap Ac und]
+32.0 +26.5 73 +49 +51 опасность
перегрева
1001.3 976.9
12 22.08 Ю 1 6000 м гроза, ливневой дождь {морось} 10/6 300 м
[Cb cap Ac und]
+27.0 +25.6 92 +40 +40 очень
душно
1002.5 977.7 +32.0 1
00 23.08 Ю 1 5000 м 10/6 300 м
[Sc Ac und]
+25.0 +23.3 90 +33 +34 очень
душно
1005.5 980.5 +24.4

 

Местоположение метеостанции Мейтхила (Мьянма): широта 20.83 долгота 95.83 высота над уровнем моря 220 м.

В архиве по умолчанию представлена погода в Мейтхиле за последнюю неделю. Архивные данные за месяц целиком и за предыдущие месяцы, начиная с января 2011 года, Вы можете получить, выбрав интересующий диапазон дат из раскрывающегося списка и нажав кнопку "Ввод!".


*Определитесь, кто Вы:
робот инопланетянин человек

Внимание! Время в таблицах - всемирное. Для получения местного времени необходимо прибавить поправку, которая равна 6.5 ч.

Смотрите также архив погоды в соседних городах и на ближайших метеорологических станциях:

Погода в Ньянг-У (Мьянма) (103 км)
Погода в Чау (Мьянма) (105 км)
Погода в Сикайне (Мьянма) (118 км)
Погода в Магуэе (Мьянма) (119 км)
Погода в Минбу (Мьянма) (123 км)
Погода в Таунджи (Мьянма) (127 км)
Погода в Пьинмане (Мьянма) (130 км)
Погода в Мандалае (Мьянма) (131 км)
Погода в Мемьо (Мьянма) (149 км)
Погода в Моунъюа (Мьянма) (159 км)

Пояснения к столбцам:

Ветер - указаны скорость ветра в м/с - средняя за 10 мин, порывы в срок и между сроками (в фигурных скобках) и направление, откуда дует ветер: С - северный, СВ - северо-восточный, В - восточный, ЮВ - юго-восточный, Ю - южный, ЮЗ - юго-западный, З - западный, СЗ - северо-западный.
Видимость - горизонтальная дальность видимости в метрах или километрах. При видимости от 1 до 10 км при отсутствии осадков обычно наблюдается дымка, при ухудшении видимости до 1 км и менее - туман. В сухую погоду видимость может ухудшаться дымом, пылью или мглою.
Явления - указаны атмосферные явления, наблюдавшиеся в срок или в последний час перед сроком; фигурными скобками обозначены явления, наблюдавшиеся между сроками (за 1-3 часа до срока); квадратными скобками обозначены град или гололедные отложения с указанием их диаметра в мм.
Облачность - указаны через наклонную черту общая и нижняя облачность в баллах и высота нижней границы облаков в метрах; квадратными скобками обозначены формы облаков: Ci - перистые, Cs - перисто-слоистые, Cc - перисто-кучевые, Ac - высококучевые, As - высокослоистые, Sc - слоисто-кучевые, Ns - слоисто-дождевые, Cu - кучевые, Cb - кучево-дождевые. Подробнее классификацию облаков см. в Атласе облаков (PDF).
T - Температура воздуха - температура, измеренная на высоте 2 м над землей.
Td - Температура точки росы - температура, при понижении до которой содержащийся в воздухе водяной пар достигнет насыщения.
f - Относительная влажность воздуха - влажноcть воздуха, измеренная на высоте 2 м над землей.
Te - Эффективная температура - температура, которую ощущает одетый по сезону человек в тени. Характеристика душности погоды. При расчете учитывается влияние влажности воздуха и скорости ветра на теплоощущения человека.
Tes - Эффективная температура на солнце - температура, которую ощущает человек, с поправкой на солнечный нагрев. Характеристика знойности погоды. Зависит от высоты солнца над горизонтом, облачности и скорости ветра. Ночью, в пасмурную погоду, а также при ветре 12 м/с и более поправка равна нулю.
P - Атмосферное давление - приведенное к уровню моря атмосферное давление.
Po - Атмосферное давление - измеренное на уровне метеостанции атмосферное давление.
Tmin - Минимальная температура - минимум температуры воздуха на высоте 2 м над землей.
Tmax - Максимальная температура - максимум температуры воздуха на высоте 2 м над землей.
R - Количество осадков - Количество выпавших осадков за период времени, мм. При наведении курсора мыши на число - период времени, за который выпало указанное количество осадков.
R24 - Количество осадков - Количество выпавших осадков за 24 часа, мм.
S - Снежный покров - Высота снежного покрова, см. При наведении курсора мыши на число - состояние снежного покрова и степень покрытия местности в баллах.